Home   Weather   Korneuburg   Past weeks

Flag for Austria Past Weather in Korneuburg, Lower Austria, Austria — Yesterday and Last 2 Weeks

Now
65 °F

Partly sunny.


Feels Like: 65 °F
Forecast: 45 / 70 °F
Wind: 2 mph from East

Location: Wien / Hohe Warte

Current Time: Sep 26, 2016 at 12:38:16 PM

Latest Report: Sep 26, 2016 at 12:00 PM


Visibility: 8 mi

Pressure: 30.18 "Hg

Humidity: 60%

Dew Point: 50 °F

Location of KorneuburgLocation

Past Weather in Korneuburg — Graph

°F

Korneuburg Temperature Yesterday

Maximum temperature yesterday: 72 °F (at 3:00 PM)
Minimum temperature yesterday: 49 °F (at 6:00 AM)
Average temperature yesterday: 60 °F

High & Low Weather Summary for the Past Weeks

 TemperatureHumidityPressure
High86 °F (Sep 11, 4:00 PM)95% (Sep 16, 6:00 AM)30.34 "Hg (Sep 16, 6:00 AM)
Low44 °F (Sep 23, 7:00 AM)35% (Sep 13, 5:00 PM)29.75 "Hg (Sep 17, 6:00 AM)
Average64 °F68%30.04 "Hg
* Reported Sep 11 11:00 AM — Sep 26 11:00 AM, Korneuburg, Weather by CustomWeather, © 2016

Note: Actual official high and low records may vary slightly from our data, if they occured in-between our weather recording intervals... More about our weather records

Advertising

Korneuburg Weather History for the Previous 24 Hours

Scroll right to see more
 ConditionsComfort  
Time TempWeatherWind HumidityBarometerVisibility
11:00 AM
Mon, Sep 26
62 °FPartly sunny.1 mph65%30.19 "Hg8 mi
10:00 AM58 °FPartly sunny.1 mph72%30.20 "Hg9 mi
9:00 AM55 °FOvercast.1 mph78%30.20 "Hg10 mi
8:00 AM53 °FOvercast.1 mph83%30.18 "Hg10 mi
7:00 AM51 °FOvercast.2 mph88%30.18 "Hg12 mi
6:00 AM52 °FPassing clouds.2 mph86%30.16 "Hg16 mi
5:00 AM53 °FCool.1 mph84%30.16 "HgN/A
4:00 AM53 °FCool.1 mph81%30.16 "HgN/A
3:00 AM52 °FCool.1 mph81%30.17 "HgN/A
2:00 AM52 °FPassing clouds.1 mph78%30.17 "Hg9 mi
1:00 AM54 °FCool.1 mph72%30.16 "HgN/A
12:00 AM56 °FCool.2 mph63%30.16 "HgN/A
11:00 PM
Sun, Sep 25
57 °FCool.2 mph66%30.15 "HgN/A
10:00 PM59 °FClear.3 mph63%30.14 "Hg22 mi
9:00 PM61 °FClear.3 mph62%30.14 "Hg22 mi
8:00 PM61 °FPassing clouds.3 mph67%30.12 "Hg22 mi
7:00 PM64 °FPassing clouds.1 mph59%30.10 "Hg22 mi
6:00 PM68 °FOvercast.1 mph49%30.09 "Hg19 mi
5:00 PM71 °FPartly sunny.1 mph45%30.09 "Hg25 mi
4:00 PM72 °FPartly sunny.2 mph44%30.11 "Hg19 mi
3:00 PM72 °FPassing clouds.3 mph45%30.11 "Hg19 mi
2:00 PM71 °FPassing clouds.2 mph49%30.14 "Hg19 mi
1:00 PM69 °FPassing clouds.2 mph54%30.16 "Hg16 mi
12:00 PM66 °FPassing clouds.3 mph58%30.18 "Hg10 mi
Weather by CustomWeather, © 2016

See weather overviewHow to use our weather pages